20040112,000004,536226,33.452333,-117.723833,14.285,33.154,NaN,NaN
20040112,000034,536256,33.453167,-117.724833,14.290,33.144,NaN,NaN
20040112,000104,536286,33.453833,-117.725833,14.268,33.145,NaN,NaN
20040112,000134,536316,33.454667,-117.726833,14.308,33.134,NaN,NaN
20040112,000204,536346,33.455500,-117.727833,14.356,33.131,NaN,NaN
20040112,000234,536376,33.456333,-117.729000,14.331,33.144,NaN,NaN
20040112,000304,536406,33.457333,-117.730167,14.332,33.132,NaN,NaN
20040112,000334,536436,33.458167,-117.731333,14.324,33.137,NaN,NaN
20040112,000404,536466,33.459000,-117.732500,14.329,33.136,NaN,NaN
20040112,000434,536496,33.460000,-117.733667,14.254,33.145,NaN,NaN
20040112,000504,536526,33.461000,-117.734833,14.213,33.138,NaN,NaN
20040112,000534,536556,33.461833,-117.736167,14.181,33.139,NaN,NaN
20040112,000604,536586,33.462833,-117.737333,14.253,33.134,NaN,NaN
20040112,000634,536616,33.463667,-117.738500,14.267,33.132,NaN,NaN
20040112,000704,536646,33.464667,-117.739667,14.301,33.135,NaN,NaN
20040112,000734,536676,33.465500,-117.740833,14.286,33.136,NaN,NaN
20040112,000804,536706,33.466500,-117.742000,14.355,33.116,NaN,NaN
20040112,000834,536736,33.467333,-117.743333,14.666,33.088,NaN,NaN
20040112,000904,536766,33.468333,-117.744500,14.964,33.110,NaN,NaN
20040112,000934,536796,33.469167,-117.745667,15.155,33.157,NaN,NaN
20040112,001004,536826,33.470167,-117.746833,15.136,33.191,NaN,NaN
20040112,001034,536856,33.471000,-117.748000,15.068,33.206,NaN,NaN
20040112,001104,536886,33.471833,-117.749000,15.123,33.188,NaN,NaN
20040112,001134,536916,33.472833,-117.750167,15.156,33.210,NaN,NaN
20040112,001204,536946,33.473667,-117.751333,15.066,33.217,NaN,NaN
20040112,001234,536976,33.474500,-117.752500,14.994,33.216,NaN,NaN
20040112,001304,537006,33.475500,-117.753667,14.942,33.212,NaN,NaN
20040112,001334,537036,33.476333,-117.754833,14.898,33.215,NaN,NaN
20040112,001404,537066,33.477333,-117.755833,14.802,33.219,NaN,NaN
20040112,001434,537096,33.478167,-117.757000,14.772,33.207,NaN,NaN
20040112,001504,537126,33.479000,-117.758167,14.891,33.201,NaN,NaN
20040112,001534,537156,33.480000,-117.759333,14.909,33.208,NaN,NaN
20040112,001604,537186,33.480833,-117.760500,14.864,33.213,NaN,NaN
20040112,001634,537216,33.481833,-117.761500,14.795,33.215,NaN,NaN
20040112,001704,537246,33.482667,-117.762667,14.847,33.202,NaN,NaN
20040112,001734,537276,33.483500,-117.763833,14.962,33.203,NaN,NaN
20040112,001804,537306,33.484333,-117.764667,14.996,33.206,NaN,NaN
20040112,001834,537336,33.484833,-117.765333,14.991,33.213,NaN,NaN
20040112,001904,537366,33.485000,-117.765667,15.029,33.207,NaN,NaN
20040112,001934,537396,33.485000,-117.766167,15.082,33.209,NaN,NaN
20040112,002004,537426,33.485000,-117.766667,15.099,33.210,NaN,NaN
20040112,002034,537456,33.484833,-117.767000,15.057,33.218,NaN,NaN
20040112,002103,537485,33.484833,-117.767167,15.025,33.217,NaN,NaN
20040112,002133,537515,33.484667,-117.767500,14.994,33.216,NaN,NaN
20040112,002203,537545,33.484500,-117.767833,14.943,33.218,NaN,NaN
20040112,002233,537575,33.484500,-117.768000,14.896,33.217,NaN,NaN
20040112,002303,537605,33.484333,-117.768333,14.859,33.215,NaN,NaN
20040112,002333,537635,33.484167,-117.768500,14.851,33.212,NaN,NaN
20040112,002403,537665,33.484000,-117.768667,14.835,33.214,NaN,NaN
20040112,002433,537695,33.484000,-117.768833,14.835,33.212,NaN,NaN
20040112,002503,537725,33.483833,-117.768833,14.858,33.211,NaN,NaN
20040112,002533,537755,33.483833,-117.769000,14.874,33.211,NaN,NaN
20040112,002603,537785,33.483833,-117.769000,14.878,33.212,NaN,NaN
20040112,002633,537815,33.483667,-117.769000,14.870,33.214,NaN,NaN
20040112,002703,537845,33.483500,-117.769167,14.848,33.214,NaN,NaN
20040112,002733,537875,33.483333,-117.769167,14.824,33.216,NaN,NaN
20040112,002803,537905,33.483167,-117.769333,14.820,33.212,NaN,NaN
20040112,002833,537935,33.483000,-117.769500,14.826,33.213,NaN,NaN
20040112,002903,537965,33.482833,-117.769500,14.814,33.213,NaN,NaN
20040112,002933,537995,33.482667,-117.769667,14.826,33.211,NaN,NaN
20040112,003003,538025,33.482500,-117.769833,14.835,33.212,NaN,NaN
20040112,003033,538055,33.482500,-117.769833,14.831,33.213,NaN,NaN
20040112,003103,538085,33.482333,-117.769833,14.822,33.213,NaN,NaN
20040112,003133,538115,33.482167,-117.769833,14.814,33.214,NaN,NaN
20040112,003203,538145,33.482167,-117.770000,14.817,33.212,NaN,NaN
20040112,003233,538175,33.482000,-117.770000,14.820,33.212,NaN,NaN
20040112,003303,538205,33.481833,-117.770000,14.820,33.213,NaN,NaN
20040112,003333,538235,33.481833,-117.770000,14.814,33.213,NaN,NaN
20040112,003403,538265,33.481667,-117.770000,14.809,33.213,NaN,NaN
20040112,003433,538295,33.481667,-117.770000,14.807,33.213,NaN,NaN
20040112,003503,538325,33.481500,-117.770000,14.796,33.213,NaN,NaN
20040112,003533,538355,33.481500,-117.770000,14.785,33.214,NaN,NaN
20040112,003603,538385,33.481500,-117.770000,14.766,33.214,NaN,NaN
20040112,003633,538415,33.481500,-117.770167,14.750,33.214,NaN,NaN
20040112,003703,538445,33.481333,-117.770167,14.743,33.213,NaN,NaN
20040112,003733,538475,33.481333,-117.770333,14.742,33.212,NaN,NaN
20040112,003803,538505,33.481167,-117.770333,14.750,33.211,NaN,NaN
20040112,003833,538535,33.481167,-117.770500,14.760,33.211,NaN,NaN
20040112,003903,538565,33.481167,-117.770500,14.766,33.211,NaN,NaN
20040112,003933,538595,33.481000,-117.770500,14.770,33.211,NaN,NaN
20040112,004003,538625,33.481000,-117.770500,14.769,33.212,NaN,NaN
20040112,004033,538655,33.481000,-117.770500,14.766,33.212,NaN,NaN
20040112,004103,538685,33.481000,-117.770500,14.765,33.212,NaN,NaN
20040112,004133,538715,33.481000,-117.770500,14.756,33.213,NaN,NaN
20040112,004203,538745,33.480833,-117.770500,14.753,33.212,NaN,NaN
20040112,004233,538775,33.480833,-117.770500,14.746,33.213,NaN,NaN
20040112,004303,538805,33.480833,-117.770500,14.741,33.212,NaN,NaN
20040112,004333,538835,33.480667,-117.770667,14.726,33.212,NaN,NaN
20040112,004403,538865,33.480333,-117.770667,14.722,33.212,NaN,NaN
20040112,004433,538895,33.480000,-117.770667,14.716,33.210,NaN,NaN
20040112,004503,538925,33.479667,-117.770333,14.710,33.211,NaN,NaN
20040112,004533,538955,33.479667,-117.770167,14.700,33.211,NaN,NaN
20040112,004603,538985,33.479667,-117.770167,14.675,33.214,NaN,NaN
20040112,004633,539015,33.479667,-117.769833,14.659,33.212,NaN,NaN
20040112,004703,539045,33.479667,-117.769667,14.663,33.211,NaN,NaN
20040112,004733,539075,33.479667,-117.769667,14.670,33.209,NaN,NaN
20040112,004803,539105,33.479667,-117.769667,14.687,33.209,NaN,NaN
20040112,004833,539135,33.479667,-117.769500,14.696,33.211,NaN,NaN
20040112,004903,539165,33.479667,-117.769500,14.700,33.210,NaN,NaN
20040112,004933,539195,33.479667,-117.769500,14.700,33.211,NaN,NaN
20040112,005003,539225,33.479667,-117.769500,14.696,33.212,NaN,NaN
20040112,005033,539255,33.479667,-117.769500,14.694,33.211,NaN,NaN
20040112,005103,539285,33.479833,-117.769333,14.670,33.216,NaN,NaN
20040112,005133,539315,33.479833,-117.769333,14.614,33.215,NaN,NaN
20040112,005203,539345,33.479833,-117.769167,14.586,33.211,NaN,NaN
20040112,005233,539375,33.479833,-117.769167,14.577,33.207,NaN,NaN
20040112,005303,539405,33.479833,-117.769167,14.578,33.207,NaN,NaN
20040112,005333,539435,33.480000,-117.769167,14.576,33.207,NaN,NaN
20040112,005403,539465,33.480000,-117.769167,14.579,33.206,NaN,NaN
20040112,005433,539495,33.480000,-117.769167,14.601,33.206,NaN,NaN
20040112,005503,539525,33.479833,-117.769167,14.618,33.209,NaN,NaN
20040112,005533,539555,33.479833,-117.769167,14.607,33.210,NaN,NaN
20040112,005603,539585,33.479833,-117.769167,14.615,33.205,NaN,NaN
20040112,005633,539615,33.480000,-117.769000,14.659,33.206,NaN,NaN
20040112,005703,539645,33.480000,-117.768833,14.682,33.209,NaN,NaN
20040112,005733,539675,33.480167,-117.768667,14.694,33.209,NaN,NaN
20040112,005803,539705,33.480167,-117.768500,14.703,33.209,NaN,NaN
20040112,005833,539735,33.480167,-117.768167,14.704,33.211,NaN,NaN
20040112,005903,539765,33.480167,-117.768000,14.706,33.212,NaN,NaN
20040112,005933,539795,33.480333,-117.767667,14.709,33.211,NaN,NaN
20040112,010003,539825,33.480333,-117.767500,14.713,33.211,NaN,NaN
20040112,010033,539855,33.480333,-117.767167,14.705,33.213,NaN,NaN
20040112,010103,539885,33.480333,-117.766833,14.710,33.211,NaN,NaN
20040112,010133,539915,33.480333,-117.766500,14.708,33.211,NaN,NaN
20040112,010203,539945,33.480333,-117.766333,14.711,33.211,NaN,NaN
20040112,010233,539975,33.480333,-117.766000,14.730,33.209,NaN,NaN
20040112,010303,540005,33.480333,-117.765667,14.741,33.211,NaN,NaN
20040112,010333,540035,33.480333,-117.765333,14.730,33.213,NaN,NaN
20040112,010403,540065,33.480333,-117.765000,14.710,33.214,NaN,NaN
20040112,010433,540095,33.480167,-117.764833,14.695,33.213,NaN,NaN
20040112,010503,540125,33.480167,-117.764500,14.687,33.211,NaN,NaN
20040112,010533,540155,33.480167,-117.764167,14.690,33.210,NaN,NaN
20040112,010603,540185,33.480000,-117.763833,14.691,33.211,NaN,NaN
20040112,010633,540215,33.480000,-117.763500,14.679,33.212,NaN,NaN
20040112,010703,540245,33.480000,-117.763333,14.678,33.211,NaN,NaN
20040112,010733,540275,33.480000,-117.763000,14.683,33.211,NaN,NaN
20040112,010803,540305,33.480000,-117.762667,14.697,33.208,NaN,NaN
20040112,010833,540335,33.480000,-117.762333,14.717,33.209,NaN,NaN
20040112,010903,540365,33.480000,-117.762167,14.727,33.210,NaN,NaN
20040112,010933,540395,33.480000,-117.761833,14.744,33.209,NaN,NaN
20040112,011003,540425,33.480000,-117.761500,14.750,33.210,NaN,NaN
20040112,011033,540455,33.480000,-117.761167,14.758,33.209,NaN,NaN
20040112,011103,540485,33.480000,-117.761000,14.775,33.209,NaN,NaN
20040112,011133,540515,33.480000,-117.760667,14.792,33.210,NaN,NaN
20040112,011203,540545,33.480000,-117.760333,14.781,33.213,NaN,NaN
20040112,011233,540575,33.480000,-117.760000,14.781,33.211,NaN,NaN
20040112,011303,540605,33.479833,-117.759833,14.786,33.210,NaN,NaN
20040112,011333,540635,33.479833,-117.759500,14.791,33.212,NaN,NaN
20040112,011403,540665,33.479833,-117.759167,14.768,33.214,NaN,NaN
20040112,011433,540695,33.479833,-117.758833,14.742,33.213,NaN,NaN
20040112,011503,540725,33.479833,-117.758667,14.738,33.210,NaN,NaN
20040112,011533,540755,33.479833,-117.758500,14.743,33.210,NaN,NaN
20040112,011603,540785,33.479833,-117.758333,14.741,33.210,NaN,NaN
20040112,011633,540815,33.479833,-117.758167,14.746,33.208,NaN,NaN
20040112,011703,540845,33.479667,-117.757833,14.743,33.210,NaN,NaN
20040112,011733,540875,33.479667,-117.757500,14.748,33.209,NaN,NaN
20040112,011803,540905,33.479667,-117.757167,14.744,33.209,NaN,NaN
20040112,011833,540935,33.479500,-117.756667,14.769,33.206,NaN,NaN
20040112,011903,540965,33.479333,-117.756333,14.800,33.206,NaN,NaN
20040112,011933,540995,33.479167,-117.756000,14.812,33.209,NaN,NaN
20040112,012003,541025,33.478833,-117.755833,14.808,33.211,NaN,NaN
20040112,012033,541055,33.478500,-117.755667,14.803,33.211,NaN,NaN
20040112,012103,541085,33.478167,-117.755500,14.795,33.212,NaN,NaN
20040112,012133,541115,33.478000,-117.755500,14.774,33.212,NaN,NaN
20040112,012203,541145,33.477833,-117.755333,14.748,33.212,NaN,NaN
20040112,012233,541175,33.477500,-117.755333,14.723,33.213,NaN,NaN
20040112,012303,541205,33.477333,-117.755333,14.708,33.212,NaN,NaN
20040112,012333,541235,33.477000,-117.755333,14.686,33.212,NaN,NaN
20040112,012403,541265,33.476667,-117.755500,14.676,33.209,NaN,NaN
20040112,012433,541295,33.476333,-117.755667,14.699,33.206,NaN,NaN
20040112,012503,541325,33.476000,-117.755833,14.722,33.208,NaN,NaN
20040112,012533,541355,33.475500,-117.755833,14.736,33.209,NaN,NaN
20040112,012603,541385,33.475000,-117.756000,14.734,33.210,NaN,NaN
20040112,012633,541415,33.474667,-117.756000,14.721,33.211,NaN,NaN
20040112,012703,541445,33.474167,-117.756000,14.704,33.212,NaN,NaN
20040112,012733,541475,33.473667,-117.756000,14.696,33.211,NaN,NaN
20040112,012803,541505,33.473333,-117.756000,14.691,33.210,NaN,NaN
20040112,012833,541535,33.472833,-117.756167,14.688,33.212,NaN,NaN
20040112,012903,541565,33.472333,-117.756333,14.688,33.211,NaN,NaN
20040112,012933,541595,33.472000,-117.756667,14.685,33.211,NaN,NaN
20040112,013003,541625,33.471833,-117.757167,14.679,33.212,NaN,NaN
20040112,013033,541655,33.471833,-117.757833,14.676,33.211,NaN,NaN
20040112,013103,541685,33.471667,-117.758333,14.674,33.212,NaN,NaN
20040112,013133,541715,33.471333,-117.759000,14.651,33.213,NaN,NaN
20040112,013203,541745,33.470833,-117.759833,14.636,33.213,NaN,NaN
20040112,013233,541775,33.470667,-117.760833,14.645,33.210,NaN,NaN
20040112,013303,541805,33.470167,-117.761833,14.652,33.209,NaN,NaN
20040112,013333,541835,33.469667,-117.763000,14.662,33.207,NaN,NaN
20040112,013403,541865,33.469333,-117.764333,14.670,33.207,NaN,NaN
20040112,013433,541895,33.468833,-117.765667,14.674,33.204,NaN,NaN
20040112,013503,541925,33.468333,-117.766833,14.689,33.205,NaN,NaN
20040112,013533,541955,33.467833,-117.768167,14.680,33.206,NaN,NaN
20040112,013603,541985,33.467333,-117.769500,14.681,33.204,NaN,NaN
20040112,013633,542015,33.466833,-117.771000,14.682,33.201,NaN,NaN
20040112,013703,542045,33.466333,-117.772333,14.679,33.201,NaN,NaN
20040112,013733,542075,33.465833,-117.773667,14.706,33.196,NaN,NaN
20040112,013803,542105,33.465333,-117.775167,14.729,33.197,NaN,NaN
20040112,013833,542135,33.464833,-117.776667,14.738,33.198,NaN,NaN
20040112,013903,542165,33.464167,-117.778167,14.732,33.200,NaN,NaN
20040112,013933,542195,33.463667,-117.779667,14.725,33.201,NaN,NaN
20040112,014003,542225,33.463167,-117.781167,14.720,33.202,NaN,NaN
20040112,014033,542255,33.462500,-117.782667,14.745,33.199,NaN,NaN
20040112,014103,542285,33.462000,-117.784167,14.759,33.201,NaN,NaN
20040112,014133,542315,33.461500,-117.785667,14.746,33.202,NaN,NaN
20040112,014203,542345,33.460833,-117.787167,14.739,33.201,NaN,NaN
20040112,014233,542375,33.460333,-117.788667,14.747,33.202,NaN,NaN
20040112,014303,542405,33.459833,-117.790167,14.744,33.201,NaN,NaN
20040112,014333,542435,33.459333,-117.791667,14.763,33.200,NaN,NaN
20040112,014403,542465,33.458667,-117.793167,14.768,33.200,NaN,NaN
20040112,014433,542495,33.458167,-117.794833,14.779,33.199,NaN,NaN
20040112,014503,542525,33.457667,-117.796333,14.793,33.199,NaN,NaN
20040112,014533,542555,33.457167,-117.797833,14.798,33.199,NaN,NaN
20040112,014603,542585,33.456500,-117.799333,14.800,33.200,NaN,NaN
20040112,014633,542615,33.456000,-117.800833,14.774,33.201,NaN,NaN
20040112,014703,542645,33.455333,-117.802333,14.761,33.198,NaN,NaN
20040112,014733,542675,33.454833,-117.804000,14.759,33.198,NaN,NaN
20040112,014803,542705,33.454333,-117.805500,14.754,33.198,NaN,NaN
20040112,014833,542735,33.453833,-117.807000,14.740,33.200,NaN,NaN
20040112,014903,542765,33.453167,-117.808500,14.726,33.199,NaN,NaN
20040112,014933,542795,33.452667,-117.810000,14.726,33.200,NaN,NaN
20040112,015003,542825,33.452167,-117.811500,14.727,33.199,NaN,NaN
20040112,015033,542855,33.451667,-117.813000,14.724,33.199,NaN,NaN
20040112,015103,542885,33.451000,-117.814667,14.720,33.198,NaN,NaN
20040112,015133,542915,33.450500,-117.816167,14.739,33.197,NaN,NaN
20040112,015203,542945,33.450000,-117.817667,14.759,33.198,NaN,NaN
20040112,015233,542975,33.449500,-117.819167,14.761,33.200,NaN,NaN
20040112,015303,543005,33.448833,-117.820667,14.758,33.200,NaN,NaN
20040112,015333,543035,33.448333,-117.822167,14.776,33.199,NaN,NaN
20040112,015403,543065,33.447833,-117.823667,14.785,33.201,NaN,NaN
20040112,015433,543095,33.447167,-117.825167,14.773,33.203,NaN,NaN
20040112,015503,543125,33.446667,-117.826667,14.751,33.203,NaN,NaN
20040112,015533,543155,33.446167,-117.828167,14.735,33.203,NaN,NaN
20040112,015603,543185,33.445667,-117.829667,14.727,33.203,NaN,NaN
20040112,015633,543215,33.445000,-117.831167,14.722,33.203,NaN,NaN
20040112,015703,543245,33.444500,-117.832667,14.718,33.203,NaN,NaN
20040112,015733,543275,33.444000,-117.834167,14.718,33.203,NaN,NaN
20040112,015803,543305,33.443500,-117.835833,14.721,33.202,NaN,NaN
20040112,015833,543335,33.443000,-117.837333,14.717,33.203,NaN,NaN
20040112,015903,543365,33.442333,-117.838833,14.708,33.202,NaN,NaN
20040112,015933,543395,33.441833,-117.840333,14.704,33.204,NaN,NaN
20040112,020003,543425,33.441333,-117.841833,14.696,33.204,NaN,NaN
20040112,020033,543455,33.440833,-117.843333,14.686,33.205,NaN,NaN
20040112,020103,543485,33.440167,-117.844833,14.672,33.203,NaN,NaN
20040112,020133,543515,33.439667,-117.846333,14.708,33.198,NaN,NaN
20040112,020203,543545,33.439167,-117.847833,14.720,33.202,NaN,NaN
20040112,020233,543575,33.438667,-117.849333,14.713,33.204,NaN,NaN
20040112,020303,543605,33.438000,-117.850833,14.710,33.203,NaN,NaN
20040112,020333,543635,33.437500,-117.852333,14.698,33.203,NaN,NaN
20040112,020403,543665,33.437000,-117.853833,14.698,33.200,NaN,NaN
20040112,020433,543695,33.436500,-117.855333,14.694,33.200,NaN,NaN
20040112,020503,543725,33.435833,-117.857000,14.693,33.199,NaN,NaN
20040112,020533,543755,33.435333,-117.858500,14.698,33.199,NaN,NaN
20040112,020603,543785,33.434833,-117.860000,14.699,33.200,NaN,NaN
20040112,020633,543815,33.434167,-117.861500,14.698,33.200,NaN,NaN
20040112,020703,543845,33.433667,-117.863000,14.697,33.200,NaN,NaN
20040112,020733,543875,33.433167,-117.864500,14.690,33.201,NaN,NaN
20040112,020803,543905,33.432667,-117.866167,14.689,33.200,NaN,NaN
20040112,020833,543935,33.432000,-117.867667,14.688,33.201,NaN,NaN
20040112,020903,543965,33.431500,-117.869167,14.683,33.202,NaN,NaN
20040112,020933,543995,33.431000,-117.870667,14.687,33.201,NaN,NaN
20040112,021003,544025,33.430500,-117.872167,14.693,33.201,NaN,NaN
20040112,021033,544055,33.430000,-117.873667,14.692,33.203,NaN,NaN
20040112,021103,544085,33.429333,-117.875333,14.687,33.203,NaN,NaN
20040112,021133,544115,33.428833,-117.876833,14.685,33.203,NaN,NaN
20040112,021203,544145,33.428333,-117.878333,14.691,33.201,NaN,NaN
20040112,021233,544175,33.427667,-117.879833,14.698,33.202,NaN,NaN
20040112,021303,544205,33.427167,-117.881333,14.697,33.202,NaN,NaN
20040112,021333,544235,33.426667,-117.882833,14.697,33.202,NaN,NaN
20040112,021403,544265,33.426167,-117.884500,14.708,33.201,NaN,NaN
20040112,021433,544295,33.425667,-117.886000,14.712,33.201,NaN,NaN
20040112,021503,544325,33.425000,-117.887500,14.711,33.202,NaN,NaN
20040112,021533,544355,33.424500,-117.889000,14.712,33.202,NaN,NaN
20040112,021603,544385,33.424000,-117.890500,14.712,33.202,NaN,NaN
20040112,021633,544415,33.423500,-117.892167,14.714,33.201,NaN,NaN
20040112,021703,544445,33.423000,-117.893667,14.716,33.201,NaN,NaN
20040112,021733,544475,33.422500,-117.895167,14.724,33.201,NaN,NaN
20040112,021803,544505,33.421833,-117.896833,14.721,33.202,NaN,NaN
20040112,021833,544535,33.421333,-117.898333,14.715,33.202,NaN,NaN
20040112,021903,544565,33.420833,-117.899833,14.712,33.201,NaN,NaN
20040112,021933,544595,33.420333,-117.901333,14.714,33.201,NaN,NaN
20040112,022003,544625,33.419833,-117.903000,14.717,33.201,NaN,NaN
20040112,022033,544655,33.419167,-117.904500,14.726,33.200,NaN,NaN
20040112,022103,544685,33.418667,-117.906000,14.732,33.200,NaN,NaN
20040112,022133,544715,33.418167,-117.907500,14.733,33.201,NaN,NaN
20040112,022203,544745,33.417667,-117.909167,14.729,33.202,NaN,NaN
20040112,022233,544775,33.417167,-117.910667,14.726,33.201,NaN,NaN
20040112,022303,544805,33.416500,-117.912167,14.722,33.201,NaN,NaN
20040112,022333,544835,33.416000,-117.913667,14.724,33.201,NaN,NaN
20040112,022403,544865,33.415500,-117.915333,14.722,33.202,NaN,NaN
20040112,022433,544895,33.415000,-117.916833,14.733,33.203,NaN,NaN
20040112,022503,544925,33.414333,-117.918333,14.733,33.203,NaN,NaN
20040112,022533,544955,33.413833,-117.920000,14.735,33.203,NaN,NaN
20040112,022603,544985,33.413333,-117.921500,14.732,33.204,NaN,NaN
20040112,022633,545015,33.412833,-117.923000,14.729,33.205,NaN,NaN
20040112,022703,545045,33.412333,-117.924500,14.728,33.203,NaN,NaN
20040112,022733,545075,33.411667,-117.926167,14.741,33.203,NaN,NaN
20040112,022803,545105,33.411167,-117.927667,14.743,33.204,NaN,NaN
20040112,022833,545135,33.410667,-117.929167,14.744,33.205,NaN,NaN
20040112,022903,545165,33.410167,-117.930667,14.746,33.205,NaN,NaN
20040112,022933,545195,33.409667,-117.932333,14.746,33.206,NaN,NaN
20040112,023003,545225,33.409000,-117.933833,14.743,33.205,NaN,NaN
20040112,023033,545255,33.408500,-117.935333,14.735,33.207,NaN,NaN
20040112,023103,545285,33.408000,-117.937000,14.722,33.207,NaN,NaN
20040112,023133,545315,33.407500,-117.938500,14.713,33.207,NaN,NaN
20040112,023203,545345,33.407000,-117.940000,14.707,33.208,NaN,NaN
20040112,023233,545375,33.406500,-117.941500,14.708,33.208,NaN,NaN
20040112,023303,545405,33.405833,-117.943167,14.704,33.208,NaN,NaN
20040112,023333,545435,33.405333,-117.944667,14.698,33.209,NaN,NaN
20040112,023403,545465,33.404833,-117.946167,14.707,33.208,NaN,NaN
20040112,023433,545495,33.404333,-117.947667,14.722,33.207,NaN,NaN
20040112,023503,545525,33.403833,-117.949333,14.737,33.207,NaN,NaN
20040112,023533,545555,33.403167,-117.950833,14.771,33.206,NaN,NaN
20040112,023603,545585,33.402667,-117.952500,14.769,33.209,NaN,NaN
20040112,023633,545615,33.402167,-117.954000,14.798,33.207,NaN,NaN
20040112,023703,545645,33.401667,-117.955500,14.825,33.209,NaN,NaN
20040112,023733,545675,33.401167,-117.956333,14.831,33.211,NaN,NaN
20040112,023803,545705,33.400667,-117.956667,14.835,33.212,NaN,NaN
20040112,023833,545735,33.400500,-117.956500,14.839,33.212,NaN,NaN
20040112,023903,545765,33.400333,-117.956500,14.842,33.212,NaN,NaN
20040112,023933,545795,33.400333,-117.956333,14.845,33.212,NaN,NaN
20040112,024003,545825,33.400333,-117.956333,14.843,33.212,NaN,NaN
20040112,024033,545855,33.400333,-117.956167,14.842,33.212,NaN,NaN
20040112,024103,545885,33.400333,-117.956167,14.841,33.212,NaN,NaN
20040112,024133,545915,33.400333,-117.956167,14.844,33.211,NaN,NaN
20040112,024203,545945,33.400333,-117.956000,14.843,33.211,NaN,NaN
20040112,024233,545975,33.400500,-117.956000,14.841,33.213,NaN,NaN
20040112,024303,546005,33.400500,-117.956000,14.840,33.212,NaN,NaN
20040112,024333,546035,33.400500,-117.956000,14.840,33.212,NaN,NaN
20040112,024403,546065,33.400833,-117.955667,14.839,33.214,NaN,NaN
20040112,024433,546095,33.401000,-117.955333,14.827,33.213,NaN,NaN
20040112,024503,546125,33.401167,-117.954500,14.797,33.213,NaN,NaN
20040112,024533,546155,33.401500,-117.953500,14.787,33.209,NaN,NaN
20040112,024603,546185,33.401833,-117.952500,14.784,33.211,NaN,NaN
20040112,024633,546215,33.402167,-117.951333,14.756,33.212,NaN,NaN
20040112,024703,546245,33.402667,-117.950000,14.735,33.212,NaN,NaN
20040112,024733,546275,33.403167,-117.948667,14.722,33.210,NaN,NaN
20040112,024803,546305,33.403667,-117.947167,14.704,33.211,NaN,NaN
20040112,024833,546335,33.404167,-117.945667,14.696,33.209,NaN,NaN
20040112,024903,546365,33.404667,-117.944167,14.696,33.208,NaN,NaN
20040112,024933,546395,33.405167,-117.942667,14.696,33.208,NaN,NaN
20040112,025003,546425,33.405667,-117.941167,14.693,33.207,NaN,NaN
20040112,025033,546455,33.406167,-117.939667,14.690,33.207,NaN,NaN
20040112,025103,546485,33.406833,-117.938167,14.697,33.206,NaN,NaN
20040112,025133,546515,33.407333,-117.936667,14.710,33.205,NaN,NaN
20040112,025203,546545,33.407833,-117.935167,14.722,33.205,NaN,NaN
20040112,025233,546575,33.408333,-117.933667,14.730,33.204,NaN,NaN
20040112,025303,546605,33.408833,-117.932167,14.727,33.206,NaN,NaN
20040112,025333,546635,33.409333,-117.930667,14.727,33.205,NaN,NaN
20040112,025403,546665,33.410000,-117.929167,14.729,33.204,NaN,NaN
20040112,025433,546695,33.410500,-117.927667,14.732,33.205,NaN,NaN
20040112,025503,546725,33.411000,-117.926167,14.728,33.206,NaN,NaN
20040112,025533,546755,33.411500,-117.924667,14.721,33.205,NaN,NaN